Weather History for KGUY - September, 2012

Change the Weather History Date:

Thursday, September 6, 2012

  Actual Average Record
Temperature  
Mean Temperature 80 °F 74 °F  
Max Temperature 99 °F 89 °F 105 °F (2000)
Min Temperature 60 °F 60 °F 50 °F (2004)
Degree Days  
Heating Degree Days 0 0  
Month to date heating degree days 0 0  
Since 1 July heating degree days 0 1  
Cooling Degree Days 15 10  
Month to date cooling degree days 97 62  
Year to date cooling degree days 1811 1311  
Growing Degree Days 30 (Base 50)    
Moisture  
Dew Point 60 °F    
Average Humidity 60    
Maximum Humidity 93    
Minimum Humidity 26    
Precipitation  
Precipitation T in 0.06 in 0.65 in (2005)
Month to date precipitation T 0.37  
Year to date precipitation 9.02 15.14  
Snow  
Snow 0.00 in - - ()
Month to date snowfall 0.0  
Since 1 July snowfall 0.0  
Since 1 September snowfall 0.0  
Snow Depth 0.00 in    
Sea Level Pressure  
Sea Level Pressure 29.88 in    
Wind  
Wind Speed 13 mph (SSW)    
Max Wind Speed 32 mph    
Max Gust Speed 44 mph    
Visibility 10 miles    
Events Rain , Thunderstorm    
T = Trace of Precipitation, MM = Missing Value Source: NWS Daily Summary

Daily Weather History Graph

Daily Weather History Graph

Search for Another Location

Airport or City:

Trip Planner

Search our weather history database for the weather conditions in past years. The results will help you decide how hot, cold, wet, or windy it might be!

Date:

Astronomy

Sep. 06, 2012 Rise Set
Actual Time 7:21 AM CDT 8:06 PM CDT
Civil Twilight 6:55 AM CDT 8:32 PM CDT
Nautical Twilight 6:24 AM CDT 9:03 PM CDT
Astronomical Twilight 5:52 AM CDT 9:34 PM CDT
Moon 11:29 PM CDT (9/6) 1:11 PM CDT (9/6)
Length of Visible Light 13h 36m
Length of Day
12h 44m
Waning Gibbous, 67% of the Moon is Illuminated
Sep 6
Waning Gibbous
Sep 8
Last Quarter
Sep 15
New
Sep 22
First Quarter
Sep 29
Full

Hourly Weather History & Observations

Time (CDT) Temp. Heat Index Dew Point Humidity Pressure Visibility Wind Dir Wind Speed Gust Speed Precip Events Conditions
12:53 AM 68.0 °F - 61.0 °F 78% 29.91 in 10.0 mi South 3.5 mph - N/A   Unknown
1:06 AM 66.2 °F - 60.8 °F 83% 30.06 in 10.0 mi South 4.6 mph - N/A   Partly Cloudy
1:53 AM 64.9 °F - 59.0 °F 81% 29.92 in 10.0 mi SSW 4.6 mph - N/A   Unknown
2:43 AM 64.4 °F - 60.8 °F 88% 30.05 in 10.0 mi SSW 5.8 mph - N/A   Partly Cloudy
2:53 AM 64.0 °F - 60.1 °F 87% 29.92 in 10.0 mi SSW 5.8 mph - N/A   Clear
3:53 AM 63.0 °F - 60.1 °F 90% 29.93 in 10.0 mi SW 5.8 mph - N/A   Unknown
4:22 AM 62.6 °F - 59.0 °F 88% 30.05 in 10.0 mi South 3.5 mph - N/A   Partly Cloudy
4:53 AM 62.1 °F - 59.0 °F 90% 29.93 in 10.0 mi WSW 5.8 mph - N/A   Unknown
5:53 AM 62.1 °F - 59.0 °F 90% 29.93 in 10.0 mi WSW 4.6 mph - N/A   Clear
6:53 AM 61.0 °F - 57.9 °F 90% 29.92 in 9.0 mi SSW 4.6 mph - N/A   Unknown
7:53 AM 66.0 °F - 61.0 °F 84% 29.91 in 10.0 mi SW 6.9 mph - N/A   Unknown
8:48 AM 73.4 °F - 60.8 °F 65% 30.03 in 10.0 mi SW 11.5 mph - N/A   Partly Cloudy
8:53 AM 73.9 °F - 61.0 °F 64% 29.90 in 10.0 mi SSW 9.2 mph - N/A   Clear
9:53 AM 75.0 °F - 62.1 °F 64% 29.91 in 10.0 mi South 6.9 mph - N/A   Unknown
10:17 AM 80.6 °F 81.5 °F 60.8 °F 51% 30.02 in 10.0 mi SW 9.2 mph - N/A   Partly Cloudy
10:53 AM 84.0 °F 84.0 °F 60.1 °F 44% 29.88 in 10.0 mi SSW 13.8 mph - N/A   Unknown
11:49 AM 87.8 °F 87.1 °F 59.0 °F 38% 30.00 in 10.0 mi SW 12.7 mph 23.0 mph N/A   Partly Cloudy
11:53 AM 89.1 °F 88.2 °F 59.0 °F 36% 29.85 in 10.0 mi SSW 15.0 mph 23.0 mph N/A   Clear
12:53 PM 91.9 °F 91.2 °F 59.0 °F 33% 29.83 in 10.0 mi SW 13.8 mph - N/A   Unknown
1:10 PM 91.4 °F 90.7 °F 59.0 °F 34% 29.97 in 10.0 mi SW 9.2 mph 19.6 mph N/A   Scattered Clouds
1:53 PM 93.9 °F 92.9 °F 57.9 °F 30% 29.80 in 10.0 mi SSW 6.9 mph 17.3 mph N/A   Unknown
2:53 PM 98.1 °F 96.8 °F 57.0 °F 25% 29.77 in 10.0 mi South 13.8 mph 19.6 mph N/A   Unknown
3:53 PM 99.0 °F 98.1 °F 57.0 °F 25% 29.73 in 10.0 mi SSW 19.6 mph - N/A   Partly Cloudy
4:53 PM 93.9 °F 93.2 °F 59.0 °F 31% 29.71 in 10.0 mi South 17.3 mph 24.2 mph N/A   Clear
5:21 PM 89.6 °F 90.1 °F 62.6 °F 40% 29.87 in 10.0 mi South 16.1 mph - 0.00 in Thunderstorm Scattered Clouds
5:53 PM 89.1 °F 88.8 °F 60.1 °F 38% 29.72 in 10.0 mi South 19.6 mph 26.5 mph 0.00 in Rain , Thunderstorm Light Rain
6:20 PM 77.0 °F - 60.8 °F 57% 29.88 in 10.0 mi SSW 24.2 mph 34.5 mph 0.00 in Rain , Thunderstorm Light Thunderstorms and Rain
6:43 PM 78.8 °F - 60.8 °F 54% 29.88 in 10.0 mi SSW 18.4 mph - 0.00 in   Partly Cloudy
6:53 PM 79.0 °F - 60.1 °F 52% 29.77 in 10.0 mi SSW 20.7 mph 32.2 mph 0.00 in   Clear
7:36 PM 77.0 °F - 59.0 °F 54% 29.88 in 10.0 mi SSW 17.3 mph 28.8 mph N/A Thunderstorm Clear
7:53 PM 78.1 °F - 57.9 °F 50% 29.75 in 10.0 mi South 15.0 mph - N/A Thunderstorm Clear
8:04 PM 75.2 °F - 60.8 °F 61% 29.87 in 10.0 mi South 15.0 mph - N/A   Clear
8:53 PM 73.0 °F - 61.0 °F 66% 29.75 in 10.0 mi South 19.6 mph 27.6 mph N/A   Clear
9:53 PM 75.0 °F - 61.0 °F 62% 29.78 in 10.0 mi SSW 19.6 mph - N/A   Clear
10:53 PM 75.9 °F - 63.0 °F 64% 29.76 in 10.0 mi SSW 25.3 mph 33.4 mph N/A   Clear
11:53 PM 73.0 °F - 62.1 °F 68% 29.78 in 10.0 mi SSW 17.3 mph - N/A   Clear